QPF
0.00 0.00 0.00 0.00 0.00 0.00 0.00 0.00 0.00 0.00 0.00 0.00 0.00 0.01 0.01 0.01 0.01 0.02 0.02 0.02 0.03 0.05 0.07 0.09 0.12 0.23 0.33 0.39 0.39 0.33 0.27 0.21 0.17 0.13 0.11 0.09 0.10 0.08 0.06 0.05 0.04 0.04 0.04 0.04
0.00 0.00 0.00 0.00 0.00 0.00 0.00 0.00 0.00 0.00 0.00 0.00 0.00 0.00 0.01 0.01 0.01 0.01 0.01 0.01 0.03 0.05 0.07 0.10 0.14 0.22 0.27 0.38 0.42 0.38 0.34 0.28 0.20 0.14 0.12 0.11 0.12 0.10 0.07 0.05 0.04 0.03 0.04 0.03
0.00 0.00 0.00 0.00 0.00 0.00 0.00 0.00 0.00 0.00 0.00 0.00 0.00 0.01 0.01 0.01 0.01 0.01 0.01 0.01 0.02 0.06 0.06 0.06 0.14 0.20 0.26 0.35 0.44 0.38 0.35 0.34 0.26 0.19 0.16 0.14 0.12 0.10 0.06 0.03 0.02 0.02 0.02 0.02
0.00 0.00 0.00 0.00 0.00 0.00 0.00 0.00 0.00 0.00 0.00 0.00 0.00 0.01 0.01 0.01 0.01 0.01 0.02 0.03 0.02 0.03 0.03 0.04 0.11 0.19 0.25 0.30 0.33 0.30 0.27 0.31 0.29 0.22 0.13 0.08 0.06 0.05 0.04 0.03 0.03 0.03 0.02 0.01
0.00 0.00 0.00 0.00 0.00 0.00 0.00 0.00 0.00 0.01 0.01 0.00 0.00 0.00 0.00 0.01 0.01 0.01 0.02 0.02 0.01 0.03 0.05 0.04 0.07 0.16 0.17 0.24 0.24 0.21 0.16 0.25 0.25 0.20 0.13 0.09 0.05 0.05 0.04 0.03 0.02 0.02 0.02 0.01
0.00 0.00 0.00 0.00 0.00 0.00 0.00 0.00 0.00 0.01 0.01 0.00 0.00 0.00 0.00 0.00 0.00 0.01 0.02 0.02 0.02 0.02 0.05 0.06 0.11 0.17 0.16 0.14 0.14 0.12 0.10 0.16 0.19 0.15 0.12 0.10 0.06 0.05 0.04 0.02 0.01 0.01 0.01 0.01
0.00 0.00 0.00 0.00 0.00 0.00 0.00 0.00 0.01 0.00 0.00 0.01 0.00 0.00 0.00 0.00 0.00 0.00 0.00 0.01 0.01 0.01 0.03 0.06 0.09 0.12 0.12 0.10 0.09 0.07 0.09 0.13 0.12 0.09 0.08 0.08 0.07 0.05 0.03 0.03 0.02 0.01 0.01 0.02
0.00 0.00 0.00 0.00 0.00 0.00 0.00 0.00 0.01 0.01 0.01 0.01 0.00 0.00 0.00 0.00 0.00 0.00 0.00 0.01 0.01 0.01 0.01 0.02 0.03 0.06 0.09 0.08 0.06 0.05 0.08 0.10 0.07 0.06 0.07 0.07 0.05 0.04 0.04 0.03 0.02 0.02 0.02 0.02
0.00 0.00 0.00 0.00 0.00 0.00 0.00 0.00 0.00 0.01 0.01 0.00 0.00 0.00 0.00 0.00 0.00 0.00 0.00 0.00 0.00 0.00 0.01 0.01 0.01 0.02 0.04 0.04 0.03 0.03 0.05 0.06 0.06 0.06 0.07 0.07 0.06 0.04 0.03 0.03 0.02 0.01 0.01 0.01
0.00 0.00 0.00 0.00 0.00 0.00 0.00 0.01 0.01 0.01 0.00 0.00 0.00 0.00 0.00 0.00 0.01 0.00 0.00 0.00 0.00 0.01 0.02 0.01 0.01 0.02 0.03 0.03 0.03 0.03 0.03 0.04 0.04 0.05 0.06 0.07 0.07 0.05 0.03 0.03 0.01 0.01 0.01 0.01
0.00 0.00 0.00 0.00 0.00 0.00 0.00 0.01 0.01 0.01 0.01 0.01 0.01 0.00 0.00 0.00 0.00 0.00 0.00 0.00 0.01 0.01 0.02 0.02 0.02 0.02 0.03 0.03 0.03 0.03 0.03 0.03 0.04 0.03 0.03 0.03 0.03 0.03 0.03 0.03 0.02 0.01 0.01 0.01
0.00 0.00 0.00 0.00 0.00 0.00 0.00 0.00 0.01 0.00 0.00 0.01 0.01 0.00 0.00 0.01 0.00 0.00 0.00 0.00 0.01 0.01 0.01 0.01 0.02 0.03 0.02 0.02 0.02 0.02 0.03 0.02 0.03 0.02 0.02 0.02 0.02 0.03 0.03 0.02 0.02 0.02 0.01 0.01
0.00 0.00 0.00 0.00 0.00 0.01 0.01 0.01 0.00 0.00 0.00 0.00 0.00 0.00 0.01 0.01 0.00 0.00 0.00 0.00 0.01 0.01 0.00 0.01 0.01 0.01 0.01 0.01 0.01 0.02 0.03 0.02 0.02 0.02 0.02 0.02 0.02 0.02 0.03 0.03 0.02 0.02 0.01 0.02
0.00 0.01 0.01 0.01 0.01 0.01 0.01 0.01 0.01 0.00 0.00 0.00 0.00 0.00 0.01 0.01 0.01 0.01 0.01 0.01 0.01 0.00 0.00 0.00 0.00 0.01 0.01 0.01 0.01 0.01 0.02 0.01 0.01 0.01 0.01 0.01 0.01 0.02 0.04 0.03 0.02 0.02 0.02 0.02
0.00 0.00 0.00 0.01 0.01 0.01 0.01 0.01 0.01 0.01 0.01 0.00 0.00 0.00 0.01 0.01 0.01 0.01 0.01 0.01 0.01 0.01 0.00 0.00 0.01 0.01 0.01 0.01 0.02 0.02 0.02 0.02 0.01 0.01 0.01 0.01 0.01 0.02 0.04 0.03 0.03 0.04 0.03 0.02
0.00 0.00 0.00 0.01 0.01 0.01 0.01 0.01 0.00 0.00 0.01 0.01 0.00 0.00 0.01 0.01 0.01 0.02 0.01 0.01 0.01 0.01 0.01 0.01 0.01 0.02 0.02 0.02 0.01 0.02 0.03 0.03 0.02 0.01 0.01 0.02 0.03 0.03 0.03 0.03 0.03 0.05 0.04 0.04
0.01 0.01 0.01 0.01 0.01 0.01 0.01 0.01 0.01 0.01 0.01 0.01 0.01 0.00 0.01 0.01 0.01 0.03 0.03 0.03 0.02 0.01 0.01 0.02 0.03 0.03 0.02 0.02 0.03 0.03 0.03 0.04 0.04 0.04 0.04 0.04 0.04 0.04 0.04 0.04 0.03 0.04 0.04 0.04
0.00 0.01 0.01 0.01 0.02 0.02 0.02 0.01 0.01 0.01 0.01 0.01 0.01 0.01 0.01 0.01 0.02 0.03 0.04 0.03 0.03 0.02 0.02 0.02 0.03 0.03 0.04 0.03 0.03 0.04 0.06 0.07 0.06 0.06 0.08 0.08 0.08 0.06 0.06 0.05 0.05 0.04 0.04 0.04
0.01 0.01 0.01 0.02 0.02 0.04 0.05 0.03 0.03 0.03 0.02 0.01 0.01 0.01 0.01 0.01 0.02 0.02 0.03 0.03 0.03 0.02 0.02 0.03 0.03 0.04 0.04 0.04 0.04 0.06 0.07 0.09 0.09 0.07 0.06 0.07 0.07 0.07 0.06 0.07 0.09 0.09 0.06 0.05
0.01 0.01 0.02 0.02 0.02 0.02 0.03 0.02 0.03 0.04 0.04 0.03 0.04 0.03 0.03 0.02 0.03 0.03 0.03 0.04 0.03 0.04 0.03 0.03 0.03 0.05 0.06 0.05 0.07 0.09 0.10 0.10 0.09 0.07 0.07 0.09 0.10 0.09 0.09 0.10 0.12 0.12 0.09 0.06
0.02 0.02 0.02 0.02 0.02 0.01 0.01 0.02 0.04 0.05 0.04 0.05 0.05 0.06 0.05 0.03 0.04 0.05 0.05 0.05 0.05 0.05 0.05 0.04 0.04 0.06 0.07 0.08 0.10 0.12 0.13 0.14 0.13 0.13 0.13 0.14 0.13 0.13 0.13 0.15 0.16 0.14 0.11 0.10
0.04 0.04 0.02 0.02 0.02 0.02 0.02 0.03 0.04 0.04 0.04 0.04 0.04 0.04 0.04 0.03 0.04 0.06 0.07 0.08 0.08 0.07 0.05 0.05 0.06 0.07 0.07 0.08 0.11 0.14 0.16 0.16 0.16 0.16 0.17 0.17 0.16 0.16 0.17 0.17 0.17 0.15 0.13 0.11
0.05 0.06 0.05 0.03 0.03 0.04 0.03 0.04 0.04 0.04 0.04 0.03 0.04 0.04 0.05 0.04 0.06 0.06 0.07 0.08 0.09 0.07 0.06 0.06 0.08 0.13 0.15 0.15 0.14 0.15 0.14 0.15 0.15 0.15 0.16 0.17 0.16 0.16 0.16 0.15 0.15 0.15 0.15 0.14
0.06 0.08 0.07 0.05 0.06 0.06 0.04 0.04 0.06 0.07 0.07 0.06 0.06 0.08 0.09 0.08 0.07 0.08 0.09 0.07 0.07 0.07 0.07 0.07 0.06 0.09 0.12 0.12 0.10 0.09 0.09 0.09 0.09 0.11 0.15 0.18 0.20 0.19 0.18 0.18 0.17 0.16 0.15 0.16
0.05 0.08 0.07 0.06 0.07 0.05 0.05 0.05 0.08 0.09 0.10 0.10 0.09 0.10 0.13 0.13 0.11 0.11 0.12 0.11 0.09 0.08 0.07 0.06 0.05 0.04 0.05 0.06 0.06 0.06 0.06 0.08 0.10 0.12 0.15 0.18 0.20 0.19 0.19 0.19 0.18 0.15 0.13 0.14
0.05 0.07 0.10 0.13 0.10 0.08 0.08 0.08 0.10 0.11 0.12 0.13 0.13 0.13 0.12 0.13 0.17 0.17 0.16 0.15 0.13 0.10 0.07 0.06 0.04 0.03 0.02 0.03 0.04 0.05 0.05 0.07 0.11 0.15 0.17 0.18 0.19 0.18 0.17 0.16 0.16 0.15 0.12 0.12
MSLP
1009.40 1010.13 1010.67 1011.00 1011.16 1011.17 1011.08 1010.90 1010.65 1010.32 1009.91 1009.44 1008.93 1008.42 1007.98 1007.66 1007.50 1007.52 1007.68 1007.94 1008.21 1008.41 1008.47 1008.36 1008.11 1007.76 1007.43 1007.21 1007.22 1007.51 1008.13 1009.03 1010.13 1011.32 1012.48 1013.50 1014.33 1014.94 1015.33 1015.58 1015.76 1015.94 1016.18 1016.51
1009.76 1010.33 1010.69 1010.88 1010.95 1010.96 1010.93 1010.88 1010.81 1010.67 1010.44 1010.10 1009.66 1009.16 1008.66 1008.24 1007.96 1007.84 1007.90 1008.07 1008.28 1008.45 1008.49 1008.37 1008.09 1007.71 1007.33 1007.06 1007.03 1007.29 1007.91 1008.83 1009.97 1011.21 1012.44 1013.52 1014.39 1015.00 1015.39 1015.62 1015.77 1015.92 1016.14 1016.47
1009.78 1010.17 1010.36 1010.42 1010.42 1010.45 1010.53 1010.66 1010.80 1010.89 1010.87 1010.69 1010.33 1009.85 1009.29 1008.76 1008.34 1008.09 1008.02 1008.10 1008.26 1008.42 1008.48 1008.39 1008.14 1007.79 1007.42 1007.16 1007.11 1007.36 1007.96 1008.88 1010.03 1011.29 1012.53 1013.63 1014.50 1015.12 1015.49 1015.70 1015.82 1015.94 1016.14 1016.45
1009.51 1009.71 1009.73 1009.69 1009.67 1009.75 1009.98 1010.33 1010.72 1011.07 1011.27 1011.25 1010.99 1010.51 1009.89 1009.24 1008.66 1008.26 1008.06 1008.05 1008.17 1008.34 1008.45 1008.44 1008.29 1008.02 1007.73 1007.50 1007.47 1007.72 1008.30 1009.18 1010.29 1011.51 1012.72 1013.79 1014.64 1015.23 1015.59 1015.76 1015.86 1015.96 1016.14 1016.44
1009.06 1009.07 1008.97 1008.85 1008.85 1009.04 1009.45 1010.03 1010.69 1011.29 1011.71 1011.84 1011.65 1011.16 1010.45 1009.66 1008.93 1008.36 1008.03 1007.93 1008.03 1008.22 1008.43 1008.54 1008.53 1008.40 1008.21 1008.07 1008.08 1008.32 1008.85 1009.66 1010.68 1011.82 1012.94 1013.95 1014.74 1015.30 1015.62 1015.78 1015.87 1015.95 1016.12 1016.40
1008.55 1008.42 1008.23 1008.10 1008.15 1008.47 1009.07 1009.88 1010.78 1011.61 1012.21 1012.45 1012.30 1011.78 1010.97 1010.03 1009.13 1008.40 1007.94 1007.76 1007.84 1008.10 1008.41 1008.67 1008.83 1008.87 1008.83 1008.78 1008.83 1009.05 1009.52 1010.22 1011.12 1012.13 1013.13 1014.03 1014.75 1015.26 1015.56 1015.72 1015.80 1015.89 1016.06 1016.33
1008.12 1007.90 1007.66 1007.55 1007.69 1008.15 1008.92 1009.94 1011.03 1012.03 1012.74 1013.05 1012.90 1012.31 1011.39 1010.31 1009.24 1008.36 1007.79 1007.55 1007.63 1007.95 1008.38 1008.81 1009.15 1009.37 1009.47 1009.52 1009.61 1009.81 1010.19 1010.77 1011.51 1012.36 1013.22 1014.00 1014.64 1015.10 1015.38 1015.54 1015.64 1015.76 1015.94 1016.22
1007.83 1007.56 1007.33 1007.27 1007.50 1008.09 1009.01 1010.16 1011.38 1012.47 1013.23 1013.55 1013.35 1012.68 1011.64 1010.42 1009.23 1008.23 1007.57 1007.29 1007.39 1007.77 1008.32 1008.91 1009.42 1009.80 1010.04 1010.18 1010.30 1010.47 1010.76 1011.20 1011.79 1012.47 1013.17 1013.84 1014.39 1014.81 1015.10 1015.28 1015.41 1015.56 1015.77 1016.07
1007.68 1007.42 1007.23 1007.24 1007.57 1008.25 1009.25 1010.47 1011.72 1012.81 1013.55 1013.81 1013.54 1012.78 1011.65 1010.33 1009.04 1007.97 1007.26 1006.98 1007.10 1007.55 1008.21 1008.92 1009.57 1010.09 1010.45 1010.66 1010.80 1010.94 1011.15 1011.47 1011.90 1012.43 1013.00 1013.56 1014.05 1014.45 1014.74 1014.95 1015.14 1015.33 1015.58 1015.90
1007.64 1007.43 1007.31 1007.40 1007.80 1008.52 1009.54 1010.73 1011.93 1012.94 1013.58 1013.75 1013.39 1012.54 1011.35 1009.99 1008.67 1007.59 1006.88 1006.61 1006.77 1007.27 1008.00 1008.81 1009.56 1010.18 1010.62 1010.89 1011.05 1011.17 1011.32 1011.54 1011.86 1012.27 1012.74 1013.22 1013.66 1014.05 1014.36 1014.61 1014.84 1015.09 1015.37 1015.72
1007.64 1007.51 1007.48 1007.64 1008.08 1008.79 1009.75 1010.84 1011.90 1012.76 1013.25 1013.29 1012.84 1011.96 1010.75 1009.41 1008.13 1007.10 1006.44 1006.21 1006.40 1006.94 1007.70 1008.55 1009.36 1010.02 1010.52 1010.83 1011.02 1011.14 1011.26 1011.43 1011.69 1012.03 1012.43 1012.86 1013.28 1013.67 1014.00 1014.30 1014.57 1014.85 1015.17 1015.54
1007.64 1007.62 1007.68 1007.91 1008.34 1009.00 1009.83 1010.75 1011.61 1012.26 1012.58 1012.49 1011.97 1011.08 1009.92 1008.66 1007.49 1006.56 1005.98 1005.80 1006.02 1006.57 1007.32 1008.16 1008.96 1009.64 1010.15 1010.50 1010.71 1010.86 1010.99 1011.17 1011.41 1011.73 1012.12 1012.53 1012.95 1013.34 1013.70 1014.02 1014.33 1014.64 1014.98 1015.36
1007.67 1007.77 1007.92 1008.17 1008.57 1009.13 1009.79 1010.49 1011.10 1011.53 1011.67 1011.45 1010.89 1010.03 1008.97 1007.85 1006.82 1006.03 1005.55 1005.43 1005.66 1006.18 1006.87 1007.65 1008.39 1009.03 1009.54 1009.91 1010.17 1010.37 1010.56 1010.78 1011.06 1011.41 1011.81 1012.23 1012.66 1013.06 1013.44 1013.78 1014.11 1014.44 1014.79 1015.17
1007.79 1008.00 1008.22 1008.48 1008.82 1009.23 1009.69 1010.14 1010.50 1010.69 1010.64 1010.33 1009.75 1008.95 1008.02 1007.07 1006.22 1005.58 1005.21 1005.13 1005.34 1005.78 1006.38 1007.04 1007.68 1008.26 1008.74 1009.12 1009.43 1009.70 1009.98 1010.29 1010.65 1011.05 1011.49 1011.95 1012.39 1012.80 1013.19 1013.54 1013.88 1014.21 1014.57 1014.95
1008.10 1008.39 1008.65 1008.89 1009.13 1009.38 1009.61 1009.80 1009.90 1009.87 1009.66 1009.26 1008.68 1007.97 1007.19 1006.43 1005.76 1005.26 1004.97 1004.91 1005.07 1005.41 1005.86 1006.37 1006.88 1007.36 1007.80 1008.18 1008.55 1008.91 1009.29 1009.70 1010.16 1010.64 1011.14 1011.63 1012.09 1012.51 1012.90 1013.25 1013.59 1013.93 1014.29 1014.68
1008.66 1008.99 1009.25 1009.43 1009.55 1009.62 1009.62 1009.56 1009.42 1009.17 1008.82 1008.35 1007.80 1007.18 1006.55 1005.96 1005.45 1005.07 1004.85 1004.78 1004.86 1005.06 1005.34 1005.68 1006.04 1006.41 1006.79 1007.18 1007.59 1008.03 1008.52 1009.05 1009.61 1010.17 1010.72 1011.24 1011.72 1012.14 1012.52 1012.88 1013.22 1013.57 1013.94 1014.33
1009.46 1009.79 1010.00 1010.09 1010.07 1009.95 1009.73 1009.44 1009.07 1008.65 1008.17 1007.66 1007.13 1006.61 1006.11 1005.66 1005.29 1005.00 1004.81 1004.71 1004.69 1004.74 1004.85 1005.01 1005.22 1005.48 1005.80 1006.18 1006.64 1007.16 1007.74 1008.36 1009.00 1009.63 1010.22 1010.76 1011.24 1011.66 1012.04 1012.39 1012.74 1013.10 1013.49 1013.90
1010.43 1010.70 1010.82 1010.79 1010.61 1010.30 1009.88 1009.38 1008.83 1008.25 1007.69 1007.15 1006.65 1006.21 1005.82 1005.50 1005.23 1005.01 1004.84 1004.69 1004.58 1004.49 1004.45 1004.45 1004.53 1004.69 1004.95 1005.32 1005.79 1006.37 1007.01 1007.70 1008.39 1009.05 1009.66 1010.19 1010.66 1011.07 1011.44 1011.79 1012.15 1012.53 1012.95 1013.39
1011.40 1011.57 1011.57 1011.39 1011.05 1010.56 1009.95 1009.29 1008.59 1007.91 1007.29 1006.74 1006.28 1005.92 1005.63 1005.41 1005.23 1005.06 1004.90 1004.73 1004.54 1004.35 1004.19 1004.08 1004.05 1004.13 1004.34 1004.69 1005.18 1005.77 1006.44 1007.15 1007.85 1008.50 1009.09 1009.60 1010.04 1010.42 1010.77 1011.12 1011.49 1011.90 1012.35 1012.82
1012.20 1012.23 1012.08 1011.75 1011.24 1010.60 1009.86 1009.07 1008.27 1007.54 1006.89 1006.36 1005.96 1005.67 1005.47 1005.35 1005.25 1005.14 1005.01 1004.83 1004.61 1004.38 1004.15 1003.97 1003.88 1003.92 1004.09 1004.42 1004.89 1005.47 1006.12 1006.80 1007.46 1008.07 1008.61 1009.07 1009.45 1009.80 1010.12 1010.46 1010.84 1011.26 1011.72 1012.22
1012.68 1012.55 1012.25 1011.77 1011.13 1010.37 1009.53 1008.67 1007.84 1007.09 1006.46 1005.98 1005.64 1005.44 1005.34 1005.31 1005.29 1005.26 1005.19 1005.05 1004.85 1004.62 1004.39 1004.21 1004.10 1004.12 1004.28 1004.58 1005.01 1005.55 1006.14 1006.75 1007.33 1007.85 1008.30 1008.68 1009.00 1009.28 1009.57 1009.88 1010.25 1010.67 1011.13 1011.62
1012.77 1012.49 1012.04 1011.44 1010.70 1009.87 1008.99 1008.11 1007.30 1006.59 1006.02 1005.61 1005.36 1005.26 1005.26 1005.32 1005.41 1005.47 1005.48 1005.43 1005.31 1005.14 1004.97 1004.82 1004.75 1004.78 1004.92 1005.19 1005.57 1006.03 1006.53 1007.03 1007.50 1007.90 1008.24 1008.51 1008.75 1008.96 1009.19 1009.47 1009.80 1010.19 1010.63 1011.09
1012.49 1012.08 1011.52 1010.84 1010.05 1009.20 1008.34 1007.51 1006.76 1006.13 1005.66 1005.35 1005.20 1005.19 1005.30 1005.47 1005.66 1005.83 1005.96 1006.01 1006.01 1005.95 1005.87 1005.81 1005.79 1005.85 1005.99 1006.23 1006.54 1006.90 1007.28 1007.65 1007.98 1008.24 1008.46 1008.62 1008.75 1008.89 1009.05 1009.27 1009.55 1009.89 1010.27 1010.67
1011.96 1011.47 1010.85 1010.13 1009.35 1008.54 1007.74 1007.00 1006.36 1005.85 1005.49 1005.29 1005.24 1005.34 1005.54 1005.81 1006.10 1006.39 1006.63 1006.82 1006.95 1007.02 1007.07 1007.10 1007.16 1007.25 1007.40 1007.59 1007.82 1008.07 1008.32 1008.55 1008.73 1008.86 1008.94 1008.99 1009.03 1009.08 1009.18 1009.33 1009.54 1009.81 1010.11 1010.43
1011.36 1010.83 1010.21 1009.51 1008.79 1008.07 1007.38 1006.76 1006.25 1005.87 1005.63 1005.54 1005.59 1005.77 1006.05 1006.40 1006.78 1007.17 1007.52 1007.83 1008.09 1008.29 1008.46 1008.59 1008.72 1008.84 1008.98 1009.13 1009.28 1009.42 1009.54 1009.62 1009.66 1009.67 1009.64 1009.59 1009.55 1009.54 1009.57 1009.65 1009.78 1009.97 1010.18 1010.39
1010.88 1010.36 1009.78 1009.16 1008.53 1007.93 1007.38 1006.92 1006.55 1006.29 1006.17 1006.17 1006.29 1006.53 1006.86 1007.26 1007.70 1008.15 1008.58 1008.99 1009.35 1009.66 1009.92 1010.14 1010.32 1010.46 1010.58 1010.68 1010.75 1010.79 1010.78 1010.75 1010.68 1010.59 1010.47 1010.36 1010.26 1010.20 1010.18 1010.20 1010.27 1010.37 1010.49 1010.60
Thickness
5766 5751 5742 5747 5751 5754 5752 5747 5744 5757 5772 5766 5761 5760 5765 5770 5768 5763 5759 5756 5754 5752 5750 5747 5744 5741 5736 5732 5730 5728 5727 5726 5725 5724 5723 5721 5721 5722 5722 5723 5723 5723 5723 5721
5747 5743 5755 5760 5759 5754 5749 5743 5744 5757 5769 5764 5756 5756 5763 5765 5764 5763 5758 5754 5752 5748 5744 5742 5740 5738 5734 5730 5728 5726 5724 5724 5724 5724 5723 5722 5720 5720 5720 5721 5721 5721 5721 5720
5741 5750 5764 5759 5754 5749 5747 5744 5746 5749 5759 5758 5752 5748 5754 5760 5762 5760 5758 5755 5752 5748 5743 5741 5738 5736 5733 5730 5727 5725 5723 5722 5722 5721 5720 5718 5716 5716 5716 5716 5718 5719 5719 5719
5743 5756 5758 5754 5752 5752 5741 5759 5757 5753 5741 5731 5739 5722 5744 5750 5751 5753 5753 5751 5749 5747 5744 5741 5738 5735 5733 5732 5729 5725 5723 5721 5720 5719 5718 5717 5715 5713 5715 5716 5716 5716 5716 5717
5741 5754 5754 5750 5757 5760 5754 5762 5756 5748 5735 5726 5728 5720 5731 5744 5744 5749 5752 5752 5750 5747 5744 5740 5738 5736 5734 5732 5728 5725 5722 5720 5719 5719 5718 5717 5715 5715 5714 5714 5713 5713 5713 5714
5748 5761 5762 5762 5769 5768 5763 5753 5742 5728 5720 5711 5722 5716 5721 5735 5746 5752 5754 5754 5752 5748 5744 5740 5739 5736 5734 5731 5727 5724 5721 5718 5719 5718 5717 5717 5715 5714 5713 5711 5710 5710 5711 5711
5737 5750 5762 5769 5758 5760 5754 5730 5707 5705 5696 5702 5720 5716 5723 5751 5758 5758 5756 5755 5754 5750 5745 5740 5737 5735 5733 5731 5728 5724 5721 5718 5719 5718 5718 5718 5717 5715 5714 5712 5711 5710 5709 5710
5718 5724 5752 5762 5757 5748 5745 5732 5706 5696 5693 5701 5715 5714 5737 5760 5763 5763 5761 5758 5755 5751 5747 5743 5740 5737 5735 5733 5730 5726 5722 5720 5720 5719 5719 5718 5717 5716 5714 5713 5712 5711 5711 5711
5715 5722 5754 5764 5767 5758 5739 5729 5731 5708 5702 5698 5707 5721 5742 5759 5758 5758 5757 5756 5754 5751 5748 5744 5741 5738 5736 5734 5731 5729 5725 5723 5721 5720 5719 5717 5716 5716 5715 5714 5713 5713 5712 5711
5728 5722 5742 5755 5761 5755 5749 5734 5715 5703 5692 5691 5706 5715 5724 5746 5750 5753 5753 5753 5753 5751 5749 5746 5743 5740 5737 5735 5733 5730 5727 5725 5722 5721 5719 5718 5717 5717 5716 5715 5713 5713 5712 5712
5731 5719 5727 5738 5738 5736 5735 5727 5714 5701 5701 5690 5690 5709 5746 5749 5753 5753 5754 5755 5754 5752 5750 5747 5745 5743 5740 5737 5733 5730 5728 5725 5723 5721 5720 5719 5718 5717 5716 5715 5714 5714 5713 5711
5725 5712 5707 5722 5739 5745 5740 5730 5715 5705 5700 5695 5693 5712 5757 5756 5757 5756 5755 5756 5755 5754 5752 5750 5748 5744 5741 5738 5735 5732 5730 5727 5726 5724 5721 5720 5719 5717 5716 5715 5715 5714 5713 5712
5722 5706 5695 5703 5715 5728 5728 5726 5720 5709 5697 5688 5690 5716 5754 5754 5755 5755 5754 5754 5754 5753 5751 5750 5748 5745 5742 5740 5738 5735 5733 5731 5728 5725 5722 5720 5719 5718 5717 5716 5715 5714 5713 5711
5724 5703 5696 5693 5701 5713 5716 5719 5717 5708 5694 5692 5702 5720 5741 5746 5748 5750 5751 5752 5752 5751 5751 5749 5747 5745 5744 5742 5740 5738 5735 5733 5730 5726 5723 5721 5720 5719 5718 5717 5716 5714 5713 5711
5715 5698 5701 5704 5712 5713 5714 5716 5715 5711 5708 5704 5714 5721 5735 5742 5745 5748 5750 5749 5749 5748 5747 5747 5747 5746 5744 5743 5741 5740 5738 5735 5732 5728 5725 5723 5722 5720 5718 5717 5715 5714 5712 5711
5700 5693 5694 5696 5705 5707 5706 5712 5714 5713 5714 5713 5718 5723 5739 5741 5744 5744 5746 5746 5745 5746 5747 5747 5747 5746 5745 5744 5743 5741 5739 5736 5733 5730 5727 5725 5723 5720 5718 5717 5715 5713 5711 5709
5686 5684 5678 5677 5691 5695 5689 5705 5710 5711 5715 5715 5712 5723 5731 5733 5736 5738 5740 5742 5742 5744 5745 5746 5747 5747 5746 5746 5745 5741 5740 5737 5733 5730 5728 5726 5723 5721 5719 5717 5714 5712 5709 5707
5679 5672 5665 5666 5675 5668 5691 5709 5711 5709 5711 5715 5718 5722 5725 5727 5729 5733 5736 5738 5739 5741 5742 5744 5745 5746 5747 5746 5744 5742 5739 5736 5732 5730 5727 5725 5723 5721 5718 5716 5713 5711 5709 5706
5675 5668 5658 5655 5658 5669 5689 5699 5701 5698 5701 5711 5711 5715 5717 5721 5725 5725 5730 5733 5735 5737 5739 5741 5744 5745 5745 5743 5742 5739 5735 5733 5731 5728 5727 5725 5723 5719 5716 5713 5711 5710 5706 5703
5665 5663 5655 5650 5653 5655 5678 5693 5699 5696 5689 5704 5706 5706 5709 5713 5707 5711 5719 5723 5727 5730 5733 5736 5739 5740 5739 5739 5738 5734 5731 5728 5726 5726 5724 5723 5721 5717 5714 5711 5709 5706 5703 5700
5651 5648 5647 5646 5649 5659 5677 5686 5691 5675 5682 5695 5698 5700 5701 5701 5702 5704 5709 5713 5717 5721 5724 5728 5730 5731 5731 5732 5732 5729 5725 5723 5723 5721 5719 5716 5715 5712 5710 5707 5704 5701 5698 5695
5643 5640 5639 5639 5641 5650 5672 5677 5674 5674 5682 5687 5690 5692 5693 5694 5696 5698 5699 5702 5706 5710 5713 5717 5719 5719 5722 5724 5724 5720 5717 5717 5716 5714 5711 5709 5707 5706 5703 5700 5697 5694 5690 5687
5640 5641 5640 5641 5645 5657 5664 5666 5671 5674 5676 5680 5683 5685 5686 5687 5688 5689 5690 5692 5695 5698 5701 5704 5707 5708 5710 5712 5712 5709 5707 5707 5706 5705 5701 5699 5697 5695 5693 5691 5688 5684 5682 5678
5640 5642 5640 5641 5648 5654 5658 5662 5666 5670 5672 5676 5679 5680 5680 5679 5679 5679 5680 5682 5684 5686 5688 5691 5694 5694 5694 5696 5697 5697 5697 5697 5696 5693 5690 5688 5686 5684 5683 5680 5678 5674 5671 5669
5637 5637 5637 5638 5644 5649 5654 5657 5661 5665 5667 5669 5672 5672 5672 5671 5669 5669 5669 5670 5672 5674 5676 5677 5678 5679 5680 5683 5684 5685 5685 5686 5684 5682 5679 5677 5675 5674 5671 5668 5665 5663 5661 5659
5632 5633 5633 5636 5641 5642 5645 5651 5656 5657 5658 5661 5661 5661 5660 5661 5659 5659 5658 5659 5660 5661 5662 5664 5664 5665 5667 5669 5670 5671 5673 5674 5673 5670 5667 5665 5663 5661 5658 5655 5652 5649 5648 5646